ARIANE 44LP DEB, 25538

Orbit data source: Space-Track

ARIANE 44LP DEB, 25538 is space debris in HEO originally from a launch on Sun, 11 Dec 1988 UTC launched from the French Guiana (FRGUI). Debris objects in space refer to the collection of defunct objects orbiting the Earth. Examples of debris include non-operational satellites, rocket bodies, and fragments generated from explosions, collisions, or faulty payload assembly.

Loading next visibility...
Identifier
25538, 1988-109E
Orbit
HEO
Country
Flag of FRFR
Related business
Manufacturer
Unknown
Mission
Spacecraft
Bus & Motor
Unknown
Mass
Unknown
Launch date (UTC)
1988-12-11 (38 years ago)
Launch vehicle
Unknown
Launch site
French Guiana (FRGUI)
Object type
Payload
Rocket body
Debris
Shape & HBR
Unknown shape, 1.1 m
Radar Cross Section
Medium (>0.1 m² and <1 m²)

Expand to show TLE details & history
Last TLE update: 2 days ago

TLE from 2 days ago
0 ARIANE 44LP DEB
1 25538U 88109E   26171.45323108  .00000081  00000-0  17197-2 0  9998
2 25538   6.5022 118.0378 7200831 293.6929  97.2263  2.24192556226194
Epoch: 2026-06-20T10:52Z
TLE epoch observation values (Epoch: 2026-06-20T10:52:39.165Z)
Latitude
6.5126°
Longitude
138.25328°
Altitude
29,481.317 km
Speed
2.463 km/s
True Right ascension
14h 00m 20s
True Declination
6° 30' 18"
Sunlit
Object was in daylight at epoch
Visualization orbit readout
Latitude
Unknown
Longitude
Unknown
Altitude
Unknown
Speed
Unknown
Apparent Right ascension
Unknown
Apparent Declination
Unknown
Sunlit
N/A
Visualization observer readout
Local Sidereal Time
02:17:40
Azimuth
Unknown
Elevation
Unknown
Doppler factor
Unknown
Orbital elements
Apogee altitude
36,047.635 km
Perigee altitude
526.001 km
Semi-major axis
24,664.955 km
Eccentricity
0.72008
Inclination
6.5022°
RAAN
118.0378°
Arg. of periapsis
293.6929°
True anomaly
158.31226°
Mean anomaly
97.2263°
Eccentric anomaly
129.19914°
Mean motion
0.5603 °/min
Orbital period
642.51 mins
BSTAR
0.0017197
Loading maneuver chart data...
Computing Atmospheric mass density...
Loading historical data...
Loading historical data...
Loading historical data...
Loading historical data...
Loading historical data...
Loading historical data...
Loading historical data...

Documentation

Showing up to 5 results
|